Location: Mahannah Oil Field
(37.4664°N, 96.6003°W)
Time: 22:53:20
(UTC+00:00)

deb Explorer IX - Pass Details

Date: 26 June 2021
Orbit: 544 x 1093 km, 38.8° (Epoch: 30 July)

Event Time Altitude Azimuth Distance (km) Brightness Sun altitude
Exits shadow 07:59:09 11° 115° (ESE) 2,066 ? -25.6°
Drops below altitude 10° 07:59:22 10° 113° (ESE) 2,104 ? -25.6°
Sets 08:02:34 0° 89° (E) 2,916 ? -25.4°
